TimeEDT,TemperatureF,Dew PointF,Humidity,Sea Level PressureIn,VisibilityMPH,Wind Direction,Wind SpeedMPH,Gust SpeedMPH,PrecipitationIn,Events,Conditions,WindDirDegrees,DateUTC
12:14 AM,52.7,45.5,76,29.97,10.0,Calm,Calm,-,N/A,,Clear,0,2013-07-24 04:14:00
12:35 AM,52.5,45.5,77,29.98,10.0,Calm,Calm,-,N/A,,Clear,0,2013-07-24 04:35:00
12:55 AM,51.1,45.5,81,29.99,10.0,Calm,Calm,-,N/A,,Clear,0,2013-07-24 04:55:00
1:15 AM,48.4,45.1,89,30.00,10.0,Calm,Calm,-,N/A,,Clear,0,2013-07-24 05:15:00
1:34 AM,48.7,45.7,89,29.99,10.0,Calm,Calm,-,N/A,,Clear,0,2013-07-24 05:34:00
1:55 AM,48.0,44.8,89,30.00,10.0,West,3.5,-,N/A,,Clear,280,2013-07-24 05:55:00
2:14 AM,46.8,44.8,93,29.99,10.0,Calm,Calm,-,N/A,,Clear,0,2013-07-24 06:14:00
2:35 AM,46.0,44.6,95,29.99,10.0,Calm,Calm,-,N/A,,Clear,0,2013-07-24 06:35:00
2:54 AM,45.5,44.4,96,29.99,10.0,Calm,Calm,-,N/A,,Clear,0,2013-07-24 06:54:00
3:14 AM,45.7,43.7,93,29.99,10.0,Calm,Calm,-,N/A,,Clear,0,2013-07-24 07:14:00
3:34 AM,46.6,44.8,93,29.99,10.0,Calm,Calm,-,N/A,,Clear,0,2013-07-24 07:34:00
3:54 AM,46.4,44.4,93,29.99,10.0,Calm,Calm,-,N/A,,Clear,0,2013-07-24 07:54:00
4:15 AM,46.2,44.4,93,29.99,10.0,NW,3.5,-,N/A,,Clear,320,2013-07-24 08:15:00
4:34 AM,46.2,44.6,94,29.99,10.0,NW,4.6,-,N/A,,Clear,320,2013-07-24 08:34:00
4:55 AM,46.0,44.6,95,29.99,10.0,NW,4.6,-,N/A,,Clear,320,2013-07-24 08:55:00
5:14 AM,47.1,45.0,92,30.00,10.0,Calm,Calm,-,N/A,,Clear,0,2013-07-24 09:14:00
5:35 AM,45.1,44.2,97,30.00,10.0,Calm,Calm,-,N/A,,Clear,0,2013-07-24 09:35:00
5:54 AM,46.9,44.6,92,30.01,10.0,Calm,Calm,-,N/A,,Clear,0,2013-07-24 09:54:00
6:15 AM,44.8,43.5,95,30.02,10.0,Calm,Calm,-,N/A,,Clear,0,2013-07-24 10:15:00
6:34 AM,44.8,43.5,95,30.02,10.0,Calm,Calm,-,N/A,,Clear,0,2013-07-24 10:34:00
6:55 AM,45.0,44.2,97,30.03,10.0,Calm,Calm,-,N/A,,Clear,0,2013-07-24 10:55:00
7:14 AM,47.1,45.1,93,30.03,10.0,Calm,Calm,-,N/A,,Clear,0,2013-07-24 11:14:00
7:35 AM,51.1,46.9,86,30.03,10.0,North,5.8,-,N/A,,Clear,350,2013-07-24 11:35:00
7:55 AM,53.4,47.1,79,30.04,10.0,North,3.5,-,N/A,,Clear,10,2013-07-24 11:55:00
8:14 AM,54.7,46.8,75,30.05,10.0,NNW,4.6,-,N/A,,Clear,340,2013-07-24 12:14:00
8:35 AM,56.5,46.2,68,30.05,10.0,North,3.5,-,N/A,,Clear,350,2013-07-24 12:35:00
8:54 AM,58.3,45.1,62,30.05,10.0,NNE,8.1,-,N/A,,Clear,20,2013-07-24 12:54:00
9:15 AM,60.3,44.6,56,30.05,10.0,North,5.8,-,N/A,,Clear,350,2013-07-24 13:15:00
9:34 AM,61.0,42.8,51,30.06,10.0,NNW,5.8,-,N/A,,Clear,340,2013-07-24 13:34:00
9:55 AM,62.6,41.4,46,30.06,10.0,NNE,8.1,-,N/A,,Clear,20,2013-07-24 13:55:00
10:14 AM,63.3,41.7,45,30.06,10.0,NNE,6.9,-,N/A,,Clear,20,2013-07-24 14:14:00
10:34 AM,63.9,41.9,45,30.06,10.0,NNE,6.9,-,N/A,,Clear,30,2013-07-24 14:34:00
10:55 AM,65.3,42.6,44,30.06,10.0,North,9.2,21.9,N/A,,Clear,350,2013-07-24 14:55:00
11:14 AM,65.3,42.8,44,30.06,10.0,NNW,9.2,-,N/A,,Clear,330,2013-07-24 15:14:00
11:35 AM,66.7,42.4,41,30.06,10.0,NNW,8.1,-,N/A,,Clear,330,2013-07-24 15:35:00
11:54 AM,66.7,41.9,40,30.06,10.0,North,8.1,-,N/A,,Clear,350,2013-07-24 15:54:00
12:15 PM,67.1,42.3,40,30.06,10.0,NNW,6.9,-,N/A,,Clear,340,2013-07-24 16:15:00
12:34 PM,68.2,42.4,39,30.06,10.0,NNW,10.4,-,N/A,,Clear,330,2013-07-24 16:34:00
12:55 PM,68.0,41.9,39,30.06,10.0,NNW,9.2,-,N/A,,Clear,340,2013-07-24 16:55:00
1:14 PM,69.6,42.6,38,30.06,10.0,North,6.9,-,N/A,,Clear,350,2013-07-24 17:14:00
1:35 PM,68.5,42.1,38,30.06,10.0,Calm,Calm,-,N/A,,Clear,0,2013-07-24 17:35:00
1:54 PM,70.0,41.7,36,30.05,10.0,North,5.8,-,N/A,,Clear,360,2013-07-24 17:54:00
2:14 PM,70.5,41.4,35,30.05,10.0,SW,6.9,-,N/A,,Clear,230,2013-07-24 18:14:00
2:35 PM,70.9,41.9,35,30.05,10.0,North,5.8,-,N/A,,Clear,10,2013-07-24 18:35:00
2:55 PM,70.2,41.7,36,30.05,10.0,NNE,4.6,-,N/A,,Clear,20,2013-07-24 18:55:00
3:14 PM,71.2,41.7,34,30.04,10.0,NNW,5.8,-,N/A,,Clear,340,2013-07-24 19:14:00
3:35 PM,72.5,41.7,33,30.04,10.0,North,3.5,-,N/A,,Clear,10,2013-07-24 19:35:00
3:54 PM,73.4,41.9,32,30.04,10.0,North,3.5,-,N/A,,Clear,360,2013-07-24 19:54:00
4:15 PM,72.3,41.2,32,30.03,10.0,NNE,8.1,16.1,N/A,,Clear,20,2013-07-24 20:15:00
4:35 PM,73.0,42.3,33,30.03,10.0,NNE,6.9,-,N/A,,Clear,30,2013-07-24 20:35:00
4:59 PM,71.8,40.8,33,30.03,10.0,Calm,Calm,-,N/A,,Clear,0,2013-07-24 20:59:00
5:15 PM,72.1,41.5,33,30.03,10.0,NE,4.6,-,N/A,,Clear,50,2013-07-24 21:15:00
5:34 PM,72.0,41.7,34,30.03,10.0,North,5.8,-,N/A,,Scattered Clouds,10,2013-07-24 21:34:00
5:55 PM,72.7,40.3,31,30.02,10.0,East,6.9,-,N/A,,Scattered Clouds,100,2013-07-24 21:55:00
6:14 PM,72.1,40.8,32,30.02,10.0,Calm,Calm,-,N/A,,Clear,0,2013-07-24 22:14:00
6:35 PM,72.5,40.3,31,30.02,10.0,ESE,4.6,-,N/A,,Clear,120,2013-07-24 22:35:00
6:54 PM,71.6,40.1,32,30.02,10.0,ESE,5.8,-,N/A,,Clear,110,2013-07-24 22:54:00
7:14 PM,70.9,40.6,33,30.02,10.0,Calm,Calm,-,N/A,,Clear,0,2013-07-24 23:14:00
7:35 PM,71.6,40.8,33,30.02,10.0,Calm,Calm,-,N/A,,Clear,0,2013-07-24 23:35:00
7:54 PM,70.0,49.1,47,30.03,10.0,NW,8.1,-,N/A,,Clear,320,2013-07-24 23:54:00
8:15 PM,68.0,48.7,50,30.03,10.0,NW,6.9,-,N/A,,Clear,310,2013-07-25 00:15:00
8:34 PM,66.6,48.2,52,30.03,10.0,NW,6.9,-,N/A,,Clear,320,2013-07-25 00:34:00
8:55 PM,65.1,47.7,53,30.04,10.0,NW,6.9,-,N/A,,Clear,310,2013-07-25 00:55:00
9:14 PM,63.1,47.8,57,30.04,10.0,Calm,Calm,-,N/A,,Clear,0,2013-07-25 01:14:00
9:40 PM,61.0,48.9,64,30.05,10.0,NW,3.5,-,N/A,,Clear,310,2013-07-25 01:40:00
9:54 PM,60.1,49.3,67,30.05,10.0,Calm,Calm,-,N/A,,Clear,0,2013-07-25 01:54:00
10:14 PM,60.1,48.7,66,30.06,10.0,Calm,Calm,-,N/A,,Clear,0,2013-07-25 02:14:00
10:35 PM,58.5,48.4,69,30.06,10.0,Calm,Calm,-,N/A,,Clear,0,2013-07-25 02:35:00
10:55 PM,57.4,49.5,75,30.06,10.0,Calm,Calm,-,N/A,,Clear,0,2013-07-25 02:55:00
11:14 PM,56.5,49.8,78,30.06,10.0,Calm,Calm,-,N/A,,Clear,0,2013-07-25 03:14:00
11:35 PM,55.4,49.1,79,30.06,10.0,Calm,Calm,-,N/A,,Clear,0,2013-07-25 03:35:00
11:55 PM,53.6,49.3,85,30.06,10.0,Calm,Calm,-,N/A,,Clear,0,2013-07-25 03:55:00